{"data":{"norad_id":63235,"epoch":"2026-05-24T23:32:19.304736Z","epoch_age_seconds":76691,"freshness":"FRESH","line1":"1 63235U 25052AB  26144.98077899  .00006131  00000+0  25891-3 0  9995","line2":"2 63235  97.3896  37.7586 0004657 234.0442 126.0364 15.23614242 66330","mean_motion":15.23614242,"eccentricity":0.0004657,"inclination_deg":97.3896,"raan_deg":37.7586,"arg_perigee_deg":234.0442,"mean_anomaly_deg":126.0364,"bstar":0.00025891,"rev_number":6633,"period_min":94.512112075676,"perigee_km":491.74895550992,"apogee_km":498.15054851074,"semimajor_km":6873.0867520103,"source":"CELESTRAK","updated_at":"2026-05-25T13:38:03.582336Z"}}